Time,TemperatureF,DewpointF,PressureIn,WindDirection,WindDirectionDegrees,WindSpeedMPH,WindSpeedGustMPH,Humidity,HourlyPrecipIn,Conditions,Clouds,dailyrainin,SolarRadiationWatts/m^2,SoftwareType,DateUTC
2013-05-28 00:11:00,54.0,43.0,-100.00,SE,144,6.0,15.0,67,0.00,,,0.00,0.000000,,2013-05-28 07:11:00,
2013-05-28 00:21:00,54.0,43.0,-100.00,SE,144,6.0,15.0,67,0.00,,,0.00,0.000000,,2013-05-28 07:21:00,
2013-05-28 00:32:00,54.0,43.0,-100.00,SE,144,6.0,15.0,67,0.00,,,0.00,0.000000,,2013-05-28 07:32:00,
2013-05-28 00:42:00,54.0,43.0,-100.00,SE,144,6.0,15.0,67,0.00,,,0.00,0.000000,,2013-05-28 07:42:00,
2013-05-28 00:50:00,54.0,43.0,-100.00,SSW,195,5.0,12.0,65,0.00,,,0.00,0.000000,,2013-05-28 07:50:00,
2013-05-28 01:11:00,54.0,43.0,-100.00,SSW,195,5.0,12.0,65,0.00,,,0.00,0.000000,,2013-05-28 08:11:00,
2013-05-28 01:21:00,54.0,43.0,-100.00,SSW,195,5.0,12.0,65,0.00,,,0.00,0.000000,,2013-05-28 08:21:00,
2013-05-28 01:32:00,54.0,43.0,-100.00,SSW,195,5.0,12.0,65,0.00,,,0.00,0.000000,,2013-05-28 08:32:00,
2013-05-28 01:42:00,54.0,43.0,-100.00,SSW,195,5.0,12.0,65,0.00,,,0.00,0.000000,,2013-05-28 08:42:00,
2013-05-28 01:50:00,53.0,44.0,-100.00,SSW,200,7.0,13.0,72,0.00,,,0.00,0.000000,,2013-05-28 08:50:00,
2013-05-28 02:11:00,53.0,44.0,-100.00,SSW,200,7.0,13.0,72,0.00,,,0.00,0.000000,,2013-05-28 09:11:00,
2013-05-28 02:21:00,53.0,44.0,-100.00,SSW,200,7.0,13.0,72,0.00,,,0.00,0.000000,,2013-05-28 09:21:00,
2013-05-28 02:33:00,53.0,44.0,-100.00,SSW,200,7.0,13.0,72,0.00,,,0.00,0.000000,,2013-05-28 09:33:00,
2013-05-28 02:42:00,53.0,44.0,-100.00,SSW,200,7.0,13.0,72,0.00,,,0.00,0.000000,,2013-05-28 09:42:00,
2013-05-28 02:50:00,53.0,42.0,-100.00,NE,47,4.0,16.0,67,0.00,,,0.00,0.000000,,2013-05-28 09:50:00,
2013-05-28 03:12:00,53.0,42.0,-100.00,NE,47,4.0,16.0,67,0.00,,,0.00,0.000000,,2013-05-28 10:12:00,
2013-05-28 03:22:00,53.0,42.0,-100.00,NE,47,4.0,16.0,67,0.00,,,0.00,0.000000,,2013-05-28 10:22:00,
2013-05-28 03:32:00,53.0,42.0,-100.00,NE,47,4.0,16.0,67,0.00,,,0.00,0.000000,,2013-05-28 10:32:00,
2013-05-28 03:42:00,53.0,42.0,-100.00,NE,47,4.0,16.0,67,0.00,,,0.00,0.000000,,2013-05-28 10:42:00,
2013-05-28 03:50:00,53.0,42.0,-100.00,SSE,153,8.0,15.0,66,0.00,,,0.00,0.000000,,2013-05-28 10:50:00,
2013-05-28 04:11:00,53.0,42.0,-100.00,SSE,153,8.0,15.0,66,0.00,,,0.00,0.000000,,2013-05-28 11:11:00,
2013-05-28 04:22:00,53.0,42.0,-100.00,SSE,153,8.0,15.0,66,0.00,,,0.00,0.000000,,2013-05-28 11:22:00,
2013-05-28 04:32:00,53.0,42.0,-100.00,SSE,153,8.0,15.0,66,0.00,,,0.00,0.000000,,2013-05-28 11:32:00,
2013-05-28 04:41:00,53.0,42.0,-100.00,SSE,153,8.0,15.0,66,0.00,,,0.00,0.000000,,2013-05-28 11:41:00,
2013-05-28 04:50:00,53.0,44.0,-100.00,SSE,158,9.0,17.0,71,0.00,,,0.00,0.000000,,2013-05-28 11:50:00,
2013-05-28 05:11:00,53.0,44.0,-100.00,SSE,158,9.0,17.0,71,0.00,,,0.00,0.000000,,2013-05-28 12:11:00,
2013-05-28 05:21:00,53.0,44.0,-100.00,SSE,158,9.0,17.0,71,0.00,,,0.00,0.000000,,2013-05-28 12:21:00,
2013-05-28 05:31:00,53.0,44.0,-100.00,SSE,158,9.0,17.0,71,0.00,,,0.00,0.000000,,2013-05-28 12:31:00,
2013-05-28 05:42:00,53.0,44.0,-100.00,SSE,158,9.0,17.0,71,0.00,,,0.00,0.000000,,2013-05-28 12:42:00,
2013-05-28 05:50:00,50.0,45.0,-100.00,SE,144,9.0,15.0,83,0.00,,,0.00,1.000000,,2013-05-28 12:50:00,
2013-05-28 06:11:00,50.0,45.0,-100.00,SE,144,9.0,15.0,83,0.00,,,0.00,1.000000,,2013-05-28 13:11:00,
2013-05-28 06:21:00,50.0,45.0,-100.00,SE,144,9.0,15.0,83,0.00,,,0.00,1.000000,,2013-05-28 13:21:00,
2013-05-28 06:32:00,50.0,45.0,-100.00,SE,144,9.0,15.0,83,0.00,,,0.00,1.000000,,2013-05-28 13:32:00,
2013-05-28 06:42:00,50.0,45.0,-100.00,SE,144,9.0,15.0,83,0.00,,,0.00,1.000000,,2013-05-28 13:42:00,
2013-05-28 06:50:00,55.0,45.0,-100.00,ESE,108,8.0,16.0,69,0.00,,,0.00,79.000000,,2013-05-28 13:50:00,
2013-05-28 07:11:00,55.0,45.0,-100.00,ESE,108,8.0,16.0,69,0.00,,,0.00,79.000000,,2013-05-28 14:11:00,
2013-05-28 07:21:00,55.0,45.0,-100.00,ESE,108,8.0,16.0,69,0.00,,,0.00,79.000000,,2013-05-28 14:21:00,
2013-05-28 07:32:00,55.0,45.0,-100.00,ESE,108,8.0,16.0,69,0.00,,,0.00,79.000000,,2013-05-28 14:32:00,
2013-05-28 07:41:00,55.0,45.0,-100.00,ESE,108,8.0,16.0,69,0.00,,,0.00,79.000000,,2013-05-28 14:41:00,
2013-05-28 07:50:00,61.0,44.0,-100.00,SW,233,5.0,15.0,54,0.00,,,0.00,292.000000,,2013-05-28 14:50:00,
2013-05-28 08:11:00,61.0,44.0,-100.00,SW,233,5.0,15.0,54,0.00,,,0.00,292.000000,,2013-05-28 15:11:00,
2013-05-28 08:21:00,61.0,44.0,-100.00,SW,233,5.0,15.0,54,0.00,,,0.00,292.000000,,2013-05-28 15:21:00,
2013-05-28 08:32:00,61.0,44.0,-100.00,SW,233,5.0,15.0,54,0.00,,,0.00,292.000000,,2013-05-28 15:32:00,
2013-05-28 08:43:00,61.0,44.0,-100.00,SW,233,5.0,15.0,54,0.00,,,0.00,292.000000,,2013-05-28 15:43:00,
2013-05-28 08:50:00,63.0,43.0,-100.00,SSE,167,7.0,17.0,48,0.00,,,0.00,418.000000,,2013-05-28 15:50:00,
2013-05-28 09:12:00,63.0,43.0,-100.00,SSE,167,7.0,17.0,48,0.00,,,0.00,418.000000,,2013-05-28 16:12:00,
2013-05-28 09:22:00,63.0,43.0,-100.00,SSE,167,7.0,17.0,48,0.00,,,0.00,418.000000,,2013-05-28 16:22:00,
2013-05-28 09:33:00,63.0,43.0,-100.00,SSE,167,7.0,17.0,48,0.00,,,0.00,418.000000,,2013-05-28 16:33:00,
2013-05-28 09:42:00,63.0,43.0,-100.00,SSE,167,7.0,17.0,48,0.00,,,0.00,418.000000,,2013-05-28 16:42:00,
2013-05-28 09:50:00,65.0,44.0,-100.00,SSW,206,7.0,16.0,47,0.00,,,0.00,476.000000,,2013-05-28 16:50:00,
2013-05-28 10:12:00,65.0,44.0,-100.00,SSW,206,7.0,16.0,47,0.00,,,0.00,476.000000,,2013-05-28 17:12:00,
2013-05-28 10:22:00,65.0,44.0,-100.00,SSW,206,7.0,16.0,47,0.00,,,0.00,476.000000,,2013-05-28 17:22:00,
2013-05-28 10:32:00,65.0,44.0,-100.00,SSW,206,7.0,16.0,47,0.00,,,0.00,476.000000,,2013-05-28 17:32:00,
2013-05-28 10:41:00,65.0,44.0,-100.00,SSW,206,7.0,16.0,47,0.00,,,0.00,476.000000,,2013-05-28 17:41:00,
2013-05-28 10:50:00,69.0,46.0,-100.00,WSW,245,14.0,24.0,43,0.00,,,0.00,788.000000,,2013-05-28 17:50:00,
2013-05-28 11:11:00,69.0,46.0,-100.00,WSW,245,14.0,24.0,43,0.00,,,0.00,788.000000,,2013-05-28 18:11:00,
2013-05-28 11:21:00,69.0,46.0,-100.00,WSW,245,14.0,24.0,43,0.00,,,0.00,788.000000,,2013-05-28 18:21:00,
2013-05-28 11:32:00,69.0,46.0,-100.00,WSW,245,14.0,24.0,43,0.00,,,0.00,788.000000,,2013-05-28 18:32:00,
2013-05-28 11:42:00,69.0,46.0,-100.00,WSW,245,14.0,24.0,43,0.00,,,0.00,788.000000,,2013-05-28 18:42:00,
2013-05-28 11:50:00,71.0,44.0,-100.00,West,271,11.0,28.0,38,0.00,,,0.00,875.000000,,2013-05-28 18:50:00,
2013-05-28 12:11:00,71.0,44.0,-100.00,West,271,11.0,28.0,38,0.00,,,0.00,875.000000,,2013-05-28 19:11:00,
2013-05-28 12:21:00,71.0,44.0,-100.00,West,271,11.0,28.0,38,0.00,,,0.00,875.000000,,2013-05-28 19:21:00,
2013-05-28 12:32:00,71.0,44.0,-100.00,West,271,11.0,28.0,38,0.00,,,0.00,875.000000,,2013-05-28 19:32:00,
2013-05-28 12:41:00,71.0,44.0,-100.00,West,271,11.0,28.0,38,0.00,,,0.00,875.000000,,2013-05-28 19:41:00,
2013-05-28 12:50:00,72.0,44.0,-100.00,West,266,21.0,34.0,36,0.00,,,0.00,1030.000000,,2013-05-28 19:50:00,
2013-05-28 13:11:00,72.0,44.0,-100.00,West,266,21.0,34.0,36,0.00,,,0.00,1030.000000,,2013-05-28 20:11:00,
2013-05-28 13:22:00,72.0,44.0,-100.00,West,266,21.0,34.0,36,0.00,,,0.00,1030.000000,,2013-05-28 20:22:00,
2013-05-28 13:32:00,72.0,44.0,-100.00,West,266,21.0,34.0,36,0.00,,,0.00,1030.000000,,2013-05-28 20:32:00,
2013-05-28 13:42:00,72.0,44.0,-100.00,West,266,21.0,34.0,36,0.00,,,0.00,1030.000000,,2013-05-28 20:42:00,
2013-05-28 13:50:00,75.0,45.0,-100.00,West,267,21.0,37.0,34,0.00,,,0.00,1036.000000,,2013-05-28 20:50:00,
2013-05-28 14:11:00,75.0,45.0,-100.00,West,267,21.0,37.0,34,0.00,,,0.00,1036.000000,,2013-05-28 21:11:00,
2013-05-28 14:21:00,75.0,45.0,-100.00,West,267,21.0,37.0,34,0.00,,,0.00,1036.000000,,2013-05-28 21:21:00,
2013-05-28 14:33:00,75.0,45.0,-100.00,West,267,21.0,37.0,34,0.00,,,0.00,1036.000000,,2013-05-28 21:33:00,
2013-05-28 14:43:00,75.0,45.0,-100.00,West,267,21.0,37.0,34,0.00,,,0.00,1036.000000,,2013-05-28 21:43:00,
2013-05-28 14:50:00,75.0,46.0,-100.00,West,261,18.0,36.0,36,0.00,,,0.00,964.000000,,2013-05-28 21:50:00,
2013-05-28 15:12:00,75.0,46.0,-100.00,West,261,18.0,36.0,36,0.00,,,0.00,964.000000,,2013-05-28 22:12:00,
2013-05-28 15:22:00,75.0,46.0,-100.00,West,261,18.0,36.0,36,0.00,,,0.00,964.000000,,2013-05-28 22:22:00,
2013-05-28 15:32:00,75.0,46.0,-100.00,West,261,18.0,36.0,36,0.00,,,0.00,964.000000,,2013-05-28 22:32:00,
2013-05-28 15:42:00,75.0,46.0,-100.00,West,261,18.0,36.0,36,0.00,,,0.00,964.000000,,2013-05-28 22:42:00,
2013-05-28 15:50:00,73.0,48.0,-100.00,West,262,22.0,36.0,41,0.00,,,0.00,841.000000,,2013-05-28 22:50:00,
2013-05-28 16:11:00,73.0,48.0,-100.00,West,262,22.0,36.0,41,0.00,,,0.00,841.000000,,2013-05-28 23:11:00,
2013-05-28 16:21:00,73.0,48.0,-100.00,West,262,22.0,36.0,41,0.00,,,0.00,841.000000,,2013-05-28 23:21:00,
2013-05-28 16:32:00,73.0,48.0,-100.00,West,262,22.0,36.0,41,0.00,,,0.00,841.000000,,2013-05-28 23:32:00,
2013-05-28 16:42:00,73.0,48.0,-100.00,West,262,22.0,36.0,41,0.00,,,0.00,841.000000,,2013-05-28 23:42:00,
2013-05-28 16:50:00,71.0,48.0,-100.00,West,275,23.0,40.0,44,0.00,,,0.00,665.000000,,2013-05-28 23:50:00,
2013-05-28 17:11:00,71.0,48.0,-100.00,West,275,23.0,40.0,44,0.00,,,0.00,665.000000,,2013-05-29 00:11:00,
2013-05-28 17:21:00,71.0,48.0,-100.00,West,275,23.0,40.0,44,0.00,,,0.00,665.000000,,2013-05-29 00:21:00,
2013-05-28 17:32:00,71.0,48.0,-100.00,West,275,23.0,40.0,44,0.00,,,0.00,665.000000,,2013-05-29 00:32:00,
2013-05-28 17:41:00,71.0,48.0,-100.00,West,275,23.0,40.0,44,0.00,,,0.00,665.000000,,2013-05-29 00:41:00,
2013-05-28 17:50:00,68.0,50.0,-100.00,West,263,23.0,36.0,52,0.00,,,0.00,463.000000,,2013-05-29 00:50:00,
2013-05-28 18:11:00,68.0,50.0,-100.00,West,263,23.0,36.0,52,0.00,,,0.00,463.000000,,2013-05-29 01:11:00,
2013-05-28 18:22:00,68.0,50.0,-100.00,West,263,23.0,36.0,52,0.00,,,0.00,463.000000,,2013-05-29 01:22:00,
2013-05-28 18:32:00,68.0,50.0,-100.00,West,263,23.0,36.0,52,0.00,,,0.00,463.000000,,2013-05-29 01:32:00,
2013-05-28 18:41:00,68.0,50.0,-100.00,West,263,23.0,36.0,52,0.00,,,0.00,463.000000,,2013-05-29 01:41:00,
2013-05-28 18:50:00,64.0,51.0,-100.00,WSW,252,21.0,33.0,62,0.00,,,0.00,247.000000,,2013-05-29 01:50:00,
2013-05-28 19:12:00,64.0,51.0,-100.00,WSW,252,21.0,33.0,62,0.00,,,0.00,247.000000,,2013-05-29 02:12:00,
2013-05-28 19:21:00,64.0,51.0,-100.00,WSW,252,21.0,33.0,62,0.00,,,0.00,247.000000,,2013-05-29 02:21:00,
2013-05-28 19:32:00,64.0,51.0,-100.00,WSW,252,21.0,33.0,62,0.00,,,0.00,247.000000,,2013-05-29 02:32:00,
2013-05-28 19:41:00,64.0,51.0,-100.00,WSW,252,21.0,33.0,62,0.00,,,0.00,247.000000,,2013-05-29 02:41:00,
2013-05-28 19:50:00,59.0,51.0,-100.00,SE,137,9.0,31.0,75,0.00,,,0.00,54.000000,,2013-05-29 02:50:00,
2013-05-28 20:12:00,59.0,51.0,-100.00,SE,137,9.0,31.0,75,0.00,,,0.00,54.000000,,2013-05-29 03:12:00,
2013-05-28 20:21:00,59.0,51.0,-100.00,SE,137,9.0,31.0,75,0.00,,,0.00,54.000000,,2013-05-29 03:21:00,
2013-05-28 20:33:00,59.0,51.0,-100.00,SE,137,9.0,31.0,75,0.00,,,0.00,54.000000,,2013-05-29 03:33:00,
2013-05-28 20:43:00,59.0,51.0,-100.00,SE,137,9.0,31.0,75,0.00,,,0.00,54.000000,,2013-05-29 03:43:00,
2013-05-28 20:50:00,57.0,52.0,-100.00,SSE,150,8.0,14.0,83,0.00,,,0.00,1.000000,,2013-05-29 03:50:00,
2013-05-28 21:12:00,57.0,52.0,-100.00,SSE,150,8.0,14.0,83,0.00,,,0.00,1.000000,,2013-05-29 04:12:00,
2013-05-28 21:23:00,57.0,52.0,-100.00,SSE,150,8.0,14.0,83,0.00,,,0.00,1.000000,,2013-05-29 04:23:00,
2013-05-28 21:33:00,57.0,52.0,-100.00,SSE,150,8.0,14.0,83,0.00,,,0.00,1.000000,,2013-05-29 04:33:00,
2013-05-28 21:42:00,57.0,52.0,-100.00,SSE,150,8.0,14.0,83,0.00,,,0.00,1.000000,,2013-05-29 04:42:00,
2013-05-28 21:50:00,55.0,52.0,-100.00,SSW,207,7.0,22.0,89,0.00,,,0.00,0.000000,,2013-05-29 04:50:00,
2013-05-28 22:12:00,55.0,52.0,-100.00,SSW,207,7.0,22.0,89,0.00,,,0.00,0.000000,,2013-05-29 05:12:00,
2013-05-28 22:22:00,55.0,52.0,-100.00,SSW,207,7.0,22.0,89,0.00,,,0.00,0.000000,,2013-05-29 05:22:00,
2013-05-28 22:32:00,55.0,52.0,-100.00,SSW,207,7.0,22.0,89,0.00,,,0.00,0.000000,,2013-05-29 05:32:00,
2013-05-28 22:42:00,55.0,52.0,-100.00,SSW,207,7.0,22.0,89,0.00,,,0.00,0.000000,,2013-05-29 05:42:00,
2013-05-28 22:50:00,56.0,52.0,-100.00,West,277,7.0,15.0,85,0.00,,,0.00,0.000000,,2013-05-29 05:50:00,
2013-05-28 23:11:00,56.0,52.0,-100.00,West,277,7.0,15.0,85,0.00,,,0.00,0.000000,,2013-05-29 06:11:00,
2013-05-28 23:21:00,56.0,52.0,-100.00,West,277,7.0,15.0,85,0.00,,,0.00,0.000000,,2013-05-29 06:21:00,
2013-05-28 23:31:00,56.0,52.0,-100.00,West,277,7.0,15.0,85,0.00,,,0.00,0.000000,,2013-05-29 06:31:00,
2013-05-28 23:41:00,56.0,52.0,-100.00,West,277,7.0,15.0,85,0.00,,,0.00,0.000000,,2013-05-29 06:41:00,
2013-05-28 23:50:00,59.0,46.0,-100.00,West,271,12.0,22.0,61,0.00,,,0.00,0.000000,,2013-05-29 06:50:00,